Wind_Speed
27 27 27 27 27 28 29 30 32 31 31 32 36 37 38 39 39 40 41 41 41 41 41 41 41 42 44 45 47 49 52 54 57 60 63 66 69 72 75 78 80 83 85 87
29 29 30 30 28 30 31 32 34 35 34 35 37 38 39 40 40 41 41 42 42 42 42 43 43 45 46 48 50 53 55 57 60 63 66 69 72 75 78 80 83 85 87 89
31 31 34 33 30 32 34 34 36 37 37 38 39 39 39 40 41 41 42 42 43 43 44 44 45 46 48 51 53 55 58 61 64 67 70 73 76 78 81 83 85 87 89 90
34 34 37 35 33 34 36 36 37 39 40 40 41 41 40 40 41 42 42 43 43 44 45 46 47 49 51 53 55 58 61 64 67 70 73 76 78 81 83 85 87 89 90 90
37 38 39 36 35 36 38 38 38 40 41 41 41 41 41 41 41 42 43 43 44 44 46 47 49 51 53 55 58 61 64 67 70 73 76 78 80 83 85 87 88 89 89 87
39 41 42 38 37 38 39 39 38 39 40 40 40 41 41 42 42 43 43 43 44 45 47 49 51 53 55 58 61 64 67 70 73 76 78 80 83 85 86 88 88 88 86 83
40 42 42 40 39 39 40 41 39 39 39 39 40 41 42 42 43 43 43 44 45 47 49 51 53 55 58 60 64 67 69 72 75 77 80 82 84 86 87 88 87 85 82 77
41 42 43 42 42 42 42 41 40 40 40 40 41 41 42 43 43 44 44 45 46 48 50 53 55 58 60 63 67 69 72 74 76 79 81 83 85 85 86 86 84 80 75 68
41 42 42 43 43 43 42 43 42 42 42 41 42 42 42 42 43 44 45 46 48 50 52 55 58 61 64 66 69 71 73 76 78 80 82 83 84 85 84 82 79 73 68 62
41 41 42 43 43 43 43 43 43 43 43 43 42 42 42 42 43 45 46 48 50 52 54 57 60 63 66 69 71 73 75 78 80 81 82 83 83 83 81 77 72 67 62 57
40 41 42 42 43 44 45 44 44 43 43 43 42 42 43 44 45 46 48 50 52 55 58 60 63 65 68 71 73 76 78 80 81 82 82 82 81 79 76 70 66 62 57 52
40 41 43 44 45 45 45 44 43 43 43 43 43 43 44 45 47 49 50 53 55 58 61 63 66 68 70 73 76 78 80 81 82 82 82 81 78 74 68 63 58 55 52 49
42 42 43 43 43 43 43 43 42 42 42 42 43 44 46 48 49 51 53 56 58 61 63 65 68 70 73 76 78 80 81 82 82 81 80 78 74 69 61 54 50 48 47 46
42 43 43 43 43 43 42 42 42 42 42 43 45 46 48 50 51 54 56 59 61 63 65 68 71 73 75 78 79 81 81 81 80 79 77 72 68 62 55 49 45 42 42 43
41 42 42 42 42 42 41 41 42 42 43 45 47 48 50 52 54 56 59 61 63 65 68 71 73 75 77 79 80 80 80 79 78 76 71 66 61 55 50 46 43 41 40 39
40 41 41 41 41 41 41 41 42 43 45 47 48 50 52 54 56 58 61 64 66 68 71 73 75 77 79 80 80 79 78 77 75 71 65 60 54 50 46 43 41 40 39 38
39 39 39 39 39 40 41 42 43 45 47 48 50 52 54 56 59 61 63 66 69 71 74 76 77 78 79 79 79 77 76 73 69 64 59 54 49 45 42 41 40 39 38 37
37 37 38 38 39 40 41 43 45 46 48 50 52 54 56 59 61 64 66 68 71 73 75 77 78 79 78 78 77 75 72 68 62 57 52 48 44 41 39 39 39 38 37 35
35 36 37 38 40 41 43 44 46 48 50 52 54 56 59 62 64 67 69 71 73 75 76 78 78 78 77 76 74 70 66 61 55 51 46 42 39 37 37 38 37 36 35 34
36 37 38 40 41 42 44 46 48 50 52 55 57 59 62 64 67 69 71 73 76 78 78 78 78 76 74 71 68 63 59 54 49 45 41 37 36 36 36 36 36 35 34 33
36 37 39 40 42 44 46 48 50 52 55 58 60 63 65 67 70 73 75 76 77 78 78 77 75 72 69 65 60 56 51 47 43 39 36 34 34 34 35 35 34 33 32 30
37 38 40 42 44 46 48 50 53 55 58 61 64 67 69 72 74 76 77 78 78 77 76 73 70 67 63 58 54 49 45 41 38 35 33 33 33 33 33 33 32 31 30 29
38 40 42 44 46 48 51 54 57 59 62 65 68 71 74 75 77 78 77 76 76 74 72 68 64 60 56 52 47 43 40 37 35 33 32 32 32 32 31 31 30 29 27 26
42 43 45 48 50 53 55 58 61 64 66 69 72 75 77 77 77 77 77 75 72 70 66 61 57 54 49 45 41 38 36 34 32 31 30 31 31 30 29 29 28 26 25 24
45 48 50 53 56 58 61 63 65 68 70 72 74 76 77 77 76 74 72 69 66 62 58 53 50 46 43 40 37 35 33 31 30 29 28 29 28 28 27 26 25 23 23 22
51 53 56 58 61 63 65 68 70 72 73 74 74 74 74 73 71 68 65 62 58 54 50 47 43 41 38 36 33 32 30 29 28 27 27 27 26 25 25 24 22 21 20 19
56 58 60 63 65 67 69 71 72 73 74 74 73 71 69 67 64 61 57 54 50 47 45 42 40 38 35 33 31 30 28 27 26 25 25 24 24 23 22 21 20 19 18 17
Wind_Direction
257 260 262 265 269 273 278 280 282 284 283 282 282 284 286 288 289 291 292 293 294 293 292 292 291 292 292 293 294 295 296 298 299 301 302 303 304 305 306 306 307 307 307 308
258 261 264 266 271 275 277 280 282 283 284 282 283 285 286 288 289 290 291 292 292 292 291 291 292 292 293 294 295 297 298 299 301 302 303 304 305 306 307 307 308 308 309 309
261 263 266 269 273 276 279 280 282 284 284 284 284 285 286 288 289 290 291 291 291 291 291 291 292 293 294 295 297 298 299 301 302 303 305 306 307 307 308 309 309 310 310 310
264 265 267 273 275 278 279 280 282 284 284 285 285 286 287 288 289 289 290 290 290 290 291 292 293 294 295 296 298 299 301 302 304 305 306 307 308 308 309 309 310 311 311 311
266 268 270 273 278 280 280 281 282 283 284 285 286 287 287 288 288 289 290 290 290 290 291 292 293 295 296 298 299 301 302 304 305 306 307 308 309 309 310 310 311 312 312 312
268 272 275 277 279 281 282 284 284 284 285 286 286 287 288 288 289 289 289 289 289 290 292 293 294 296 298 299 301 302 304 305 306 307 308 309 310 310 311 312 313 313 313 312
270 274 277 281 284 285 286 287 288 288 287 286 287 288 288 288 288 288 289 289 290 291 292 294 296 297 299 301 302 304 305 307 308 308 309 310 311 312 312 313 313 313 313 312
270 274 279 282 284 286 287 288 290 290 289 288 288 289 288 288 288 288 289 290 291 292 294 296 298 299 300 302 303 305 306 308 308 309 310 311 312 313 314 314 314 313 313 311
271 275 278 281 283 285 287 288 289 289 289 288 288 288 288 288 288 289 290 291 292 294 296 297 299 301 302 303 305 306 307 308 309 310 311 312 313 314 315 315 314 313 312 311
273 275 278 280 283 285 287 288 289 288 288 288 288 287 287 288 288 289 291 292 294 295 297 299 301 302 303 304 306 307 308 309 310 311 312 313 314 315 315 314 313 312 311 310
274 275 277 279 282 285 286 288 288 287 287 287 287 287 287 288 290 291 293 294 295 297 299 300 302 303 304 305 307 308 309 310 311 312 313 314 315 315 315 314 312 312 311 310
274 275 277 280 282 284 285 286 286 285 286 286 286 286 287 289 291 292 294 295 297 299 300 302 303 304 305 307 308 309 310 311 312 313 314 314 315 315 314 313 312 311 311 311
276 277 278 280 281 283 283 283 283 284 284 285 285 287 289 290 292 294 295 297 298 300 301 302 304 305 307 308 309 310 311 312 313 313 314 315 315 314 313 312 311 310 310 310
275 276 277 279 281 281 281 281 282 283 284 285 286 288 290 292 293 295 296 298 299 301 302 304 305 307 308 309 310 311 312 312 313 314 314 314 314 314 313 312 311 310 310 310
274 275 277 279 280 280 280 281 282 283 284 286 287 289 291 293 294 296 298 299 301 302 304 305 306 307 308 309 310 311 312 312 313 314 314 313 313 312 312 312 312 312 311 311
274 275 276 277 278 279 280 282 283 284 285 287 289 290 292 294 296 297 299 300 302 304 305 306 307 308 309 309 310 311 312 313 313 313 312 312 311 311 310 311 311 312 312 311
274 275 276 277 278 279 281 282 283 285 287 289 290 292 294 295 297 299 300 302 304 305 306 306 308 309 309 310 311 311 312 312 312 311 311 310 309 309 309 310 311 312 313 312
273 274 276 277 278 280 282 283 285 287 289 291 292 294 296 297 299 300 302 303 304 305 306 307 308 309 309 310 310 311 311 311 310 310 309 308 308 308 308 309 311 312 313 313
274 276 277 279 280 282 284 286 288 289 291 293 295 296 298 300 301 302 303 304 305 305 306 307 308 309 309 310 310 310 310 309 309 308 307 306 306 306 308 309 311 312 313 313
276 278 279 281 282 284 286 288 290 292 294 295 297 299 300 301 302 303 304 305 306 306 307 308 308 308 309 309 309 309 309 308 307 306 305 304 305 306 307 308 310 311 312 312
278 280 282 283 285 287 289 291 293 295 296 298 299 300 301 302 303 304 305 305 306 306 307 308 308 308 308 308 308 308 307 306 305 304 303 303 303 305 307 308 309 310 311 312
280 282 284 286 289 291 292 294 296 297 299 300 301 302 302 303 304 304 305 306 306 306 307 307 307 307 307 307 306 306 305 304 302 301 301 302 303 305 306 308 309 309 310 311
283 285 287 289 291 293 295 297 298 300 300 301 302 302 303 304 304 305 305 305 306 306 306 307 306 306 306 305 304 304 303 302 300 299 300 301 303 305 306 308 309 309 310 312
287 289 290 292 294 296 297 298 300 300 301 302 303 303 303 304 304 305 305 306 306 306 306 306 305 305 305 304 303 302 301 300 298 298 299 301 303 305 306 308 308 308 309 312
290 292 294 295 297 298 299 299 300 301 301 302 303 303 304 304 305 305 305 306 306 306 306 305 305 304 303 302 301 300 299 298 297 298 299 301 303 304 306 307 307 307 308 311
293 295 296 297 298 298 299 300 301 301 302 302 303 303 303 304 304 305 305 305 306 305 305 305 304 303 302 300 299 298 297 297 296 297 299 301 302 304 305 306 306 307 308 310
295 296 297 297 298 299 300 301 301 302 302 303 303 303 303 303 303 304 304 304 305 305 304 304 302 301 300 299 297 296 296 295 295 296 298 300 301 303 304 304 305 306 308 310
Height
5760 5761 5761 5763 5764 5763 5762 5761 5760 5760 5760 5758 5754 5752 5750 5747 5745 5742 5739 5735 5732 5728 5725 5721 5718 5714 5710 5706 5701 5696 5691 5685 5679 5673 5666 5659 5651 5642 5633 5624 5614 5603 5592 5580
5752 5753 5753 5754 5756 5755 5754 5753 5751 5750 5750 5748 5745 5743 5740 5738 5735 5732 5728 5725 5722 5718 5714 5711 5707 5703 5699 5694 5689 5683 5678 5672 5665 5658 5651 5642 5634 5625 5615 5605 5594 5582 5570 5558
5744 5745 5744 5747 5749 5747 5746 5745 5743 5741 5740 5737 5736 5733 5730 5728 5725 5722 5718 5715 5711 5707 5704 5700 5696 5692 5687 5682 5676 5670 5664 5657 5650 5642 5634 5625 5616 5606 5596 5585 5574 5562 5549 5536
5735 5737 5736 5741 5740 5738 5736 5736 5734 5731 5729 5727 5725 5722 5720 5717 5714 5711 5707 5704 5700 5696 5692 5688 5684 5680 5674 5669 5663 5657 5650 5643 5634 5626 5617 5608 5598 5587 5576 5565 5553 5540 5527 5514
5726 5725 5726 5730 5730 5728 5726 5726 5724 5721 5718 5716 5713 5711 5709 5706 5703 5700 5696 5693 5689 5685 5681 5677 5672 5667 5662 5656 5649 5642 5635 5627 5618 5609 5600 5590 5579 5568 5556 5544 5532 5519 5505 5492
5717 5716 5716 5721 5720 5717 5716 5715 5714 5711 5708 5705 5703 5701 5698 5694 5691 5688 5685 5681 5677 5673 5669 5664 5659 5654 5648 5642 5635 5627 5619 5611 5601 5591 5581 5570 5559 5548 5535 5523 5510 5498 5485 5471
5707 5705 5706 5709 5707 5706 5706 5705 5702 5699 5697 5695 5692 5690 5687 5683 5679 5676 5673 5669 5665 5661 5656 5651 5646 5641 5634 5627 5620 5612 5603 5594 5584 5573 5562 5551 5540 5528 5515 5502 5490 5477 5465 5453
5698 5696 5698 5697 5696 5695 5693 5692 5690 5688 5686 5684 5681 5678 5674 5671 5667 5664 5661 5657 5653 5649 5643 5638 5632 5626 5620 5612 5604 5596 5587 5578 5567 5556 5544 5532 5520 5508 5494 5481 5469 5457 5445 5436
5689 5690 5688 5686 5684 5682 5681 5680 5678 5676 5674 5672 5669 5666 5662 5659 5656 5652 5649 5645 5640 5636 5630 5624 5617 5611 5604 5596 5587 5579 5570 5559 5548 5537 5525 5512 5500 5488 5475 5461 5448 5437 5427 5419
5678 5677 5676 5674 5672 5671 5669 5668 5666 5664 5661 5659 5656 5653 5650 5647 5644 5640 5636 5632 5627 5622 5617 5610 5603 5595 5587 5579 5570 5562 5552 5541 5530 5519 5507 5495 5481 5468 5455 5442 5430 5420 5411 5403
5666 5666 5664 5663 5661 5659 5658 5656 5653 5651 5649 5646 5644 5641 5638 5635 5631 5627 5623 5619 5614 5608 5602 5595 5588 5580 5571 5562 5553 5544 5534 5523 5512 5500 5488 5477 5465 5451 5438 5426 5413 5403 5396 5389
5654 5654 5653 5652 5650 5648 5646 5644 5641 5639 5637 5634 5631 5629 5625 5622 5619 5614 5610 5605 5599 5593 5587 5579 5571 5563 5554 5544 5535 5525 5515 5504 5493 5481 5469 5458 5447 5437 5424 5412 5402 5391 5382 5376
5642 5641 5640 5639 5638 5636 5634 5632 5629 5627 5625 5622 5619 5616 5613 5610 5606 5601 5596 5590 5585 5578 5571 5563 5555 5546 5536 5527 5516 5506 5495 5484 5473 5462 5450 5439 5428 5418 5411 5402 5391 5382 5374 5366
5630 5629 5628 5627 5625 5624 5622 5620 5618 5615 5613 5610 5607 5604 5601 5597 5592 5587 5582 5575 5569 5562 5554 5546 5537 5529 5518 5508 5498 5487 5476 5465 5454 5443 5432 5422 5411 5402 5393 5387 5381 5374 5366 5358
5618 5617 5616 5615 5613 5611 5610 5608 5606 5603 5601 5598 5595 5592 5588 5583 5579 5573 5566 5560 5553 5546 5537 5528 5520 5511 5500 5490 5480 5469 5458 5447 5436 5426 5415 5405 5396 5388 5381 5374 5368 5362 5356 5350
5606 5605 5604 5602 5601 5599 5598 5596 5594 5591 5589 5586 5582 5578 5574 5569 5564 5558 5551 5543 5536 5529 5520 5511 5502 5492 5481 5471 5461 5451 5440 5429 5418 5408 5399 5390 5382 5375 5369 5363 5357 5351 5345 5339
5594 5593 5592 5591 5589 5588 5586 5584 5582 5579 5576 5573 5569 5565 5560 5554 5549 5542 5535 5527 5519 5511 5501 5491 5483 5473 5462 5451 5441 5432 5422 5413 5402 5393 5384 5377 5370 5363 5358 5352 5347 5341 5336 5330
5583 5582 5581 5580 5578 5577 5575 5572 5570 5567 5563 5560 5555 5550 5545 5539 5533 5526 5519 5511 5502 5493 5483 5472 5463 5454 5444 5433 5423 5413 5404 5395 5387 5378 5371 5364 5358 5353 5347 5342 5337 5332 5327 5322
5572 5571 5570 5569 5567 5565 5563 5560 5557 5554 5550 5546 5541 5535 5529 5522 5515 5508 5501 5493 5483 5475 5466 5455 5444 5434 5425 5415 5404 5396 5387 5379 5372 5365 5358 5353 5348 5343 5338 5333 5328 5323 5318 5313
5562 5561 5559 5558 5556 5553 5551 5548 5544 5540 5535 5530 5525 5519 5513 5506 5498 5490 5483 5474 5463 5453 5445 5436 5426 5416 5406 5397 5388 5379 5371 5364 5358 5352 5347 5342 5338 5334 5329 5324 5320 5315 5310 5305
5551 5550 5548 5546 5544 5541 5538 5534 5530 5526 5520 5515 5508 5502 5495 5488 5480 5471 5463 5455 5446 5434 5425 5416 5406 5397 5388 5380 5372 5364 5357 5351 5346 5341 5337 5333 5329 5325 5321 5316 5311 5307 5302 5298
5540 5539 5537 5534 5532 5528 5524 5520 5515 5510 5505 5498 5491 5483 5476 5469 5461 5452 5443 5433 5425 5415 5406 5397 5388 5379 5371 5364 5357 5350 5345 5339 5335 5331 5327 5324 5320 5316 5312 5308 5304 5299 5295 5291
5529 5527 5524 5521 5518 5514 5509 5504 5499 5494 5488 5481 5473 5464 5456 5448 5440 5431 5425 5416 5404 5395 5386 5378 5370 5362 5355 5349 5343 5338 5333 5329 5325 5321 5318 5315 5311 5307 5304 5300 5296 5292 5288 5284
5516 5514 5510 5507 5503 5499 5494 5489 5482 5476 5469 5462 5453 5444 5434 5427 5420 5410 5400 5394 5385 5375 5368 5360 5353 5346 5340 5335 5330 5326 5322 5319 5315 5312 5309 5306 5303 5299 5296 5292 5289 5285 5282 5278
5503 5499 5496 5492 5487 5482 5477 5471 5465 5458 5450 5443 5435 5424 5414 5405 5397 5390 5381 5373 5365 5357 5351 5344 5338 5332 5327 5323 5319 5316 5312 5309 5306 5304 5301 5298 5295 5292 5289 5285 5282 5279 5276 5273
5488 5484 5480 5474 5469 5464 5458 5452 5445 5438 5430 5423 5416 5406 5395 5386 5377 5369 5362 5355 5348 5342 5335 5330 5325 5320 5316 5312 5309 5306 5303 5300 5298 5295 5293 5290 5287 5285 5282 5279 5276 5273 5271 5268
5472 5468 5463 5457 5450 5444 5438 5431 5424 5417 5408 5400 5394 5386 5376 5368 5360 5352 5346 5339 5334 5328 5323 5318 5313 5309 5305 5302 5299 5296 5294 5292 5290 5288 5285 5283 5280 5278 5275 5273 5270 5268 5266 5263